Terminal Aerodrome Forecast
Issued by NWS

Home | Current Version | Previous Version | Text Only | Print | Product List | Glossary Off
Versions: 1 2 3 4 5 6 7 8 9 10 11 12 13 14 15 16 17 18 19 20

000
FTUS45 KGGW 251100
TAFSDY
TAF
KSDY 251126Z 2512/2612 VRB06KT P6SM BKN060
     FM251400 23009KT 3SM -SN OVC020
     FM251800 29016KT P6SM VCSH BKN015
     FM260400 33011KT P6SM OVC020
      AMD LTD TO CLD VIS AND WIND=

USA.gov is the U.S. government's official web portal to all federal, state and local government web resources and services.